星链-33749 (STARLINK-33749)

导读

STARLINK-33749是美国SpaceX星链星座的一颗卫星,于2025年4月28日发射升空。星链项目旨在构建全球卫星互联网星座,为全球偏远地区、海洋等网络覆盖薄弱区域提供高速互联网接入服务。该卫星入轨后,将与其他星链卫星组网,进一步扩展星链星座的覆盖范围与服务能力。

Basic Information
目录编号:
63716
目录名称:
STARLINK-33749
国际标识:
2025-087V
轨道中心:
EARTH
卫星名称:
星链-33749
卫星全名:
星链-33749 (STARLINK-33749)
卫星状态:
在轨 (已飞行412 天)
发射日期:
2025-04-28 UTC
国别 :
美国 (US)
星等 :
--
Orbit Information
数据来源 国际轨道数据 AOE轨道数据
星历时间 2026-06-13T23:24:40+0800
16小时前
查看轨道信息
2026-06-14T03:00:00+0800
12小时前
查看轨道信息
半长轴 6848.818km 6848.877km
偏心率 0.0000825 0.0001306
轨道倾角 53.160° 53.158°
近地点辐角 63.216° 112.798°
升交点赤经 133.634° 132.938°
平近点角 296.892° 352.306°
近地点 470.115km 469.845km
远地点 471.247km 471.635km
周期 94.012分钟 94.013分钟
每日圈数 15.3172 15.317002
Detailed Information
固有亮度:
5
最大亮度:
2.5
卫星平台:
Starlink V1.0
覆盖范围:
全球
运营商:
太空探索技术公司
运营商所在国:
美国
制造商(研发单位):
太空探索技术公司
制造商所在国:
美国
使用方式:
暂无
Satellite Introduction
Starlink 计划是 SpaceX 推出的全球卫星互联网项目,通过发射低轨道卫星,为全球尤其是偏远地区提供高速、低延迟的互联网服务。自 2019 年起,Starlink 已部署数千颗卫星,旨在缩小全球数字鸿沟,推动互联网普及。该项目还为军事、航空等行业提供通信支持,带来广泛经济效益。
2D Orbit Map
3D Orbit Map
Orbit Altitude Analysis Chart
Orbit Inclination Analysis Chart
Orbit Comprehensive Analysis Chart
View Comprehensive Chart